Terug naar catalogus

COSMOS 2251 DEB

ActiefVLEO
NORAD 34452·DEBRIS·🇷🇺 Russia

Gelanceerd Jun 16, 1993 vanaf Plesetsk Cosmodrome

Loading…

Volgende Passages (komende 24 uur)

TLE

VersSource: Space-Track

Epoch: Sep 14, 2026, 12:44 UTC

1 34452U 93036SV  26257.53087099  .00009657  00000-0  43610-3 0  9996
2 34452  74.0278 327.7827 0056899 329.7727  30.0191 15.19591589948422

Volg COSMOS 2251 DEB in realtime met AllMySat

Download on the App Store